[[{"header":{"parameterUnit":"m.s-1","parameterCategory":2,"la1":30.2991,"la2":30.254,"lo1":-89.0895,"lo2":-89.0444,"dy":0.0017,"dx":0.0017,"nx":28,"ny":28,"refTime":"2025-04-03T09:00:00:Z","depth":"0","parameterNumber":2,"parameterNumberName":"U-component_of_CURRENTS"},"data":[0,0,0,0,0,0,0,0,0,0,0,0,0,0,0,0,0,0,0,0,0,0,0,0,0,0,0,0,0,0,0,0,0,0,0,0,0,0,0,0,0,0,0,0,0,0,0,0,0,0,0,0,0,0,0,0,0,0,0.2028,0.2029,0,0.2044,0.2044,0.2044,0.2029,0.2028,0.2028,0.2027,0.202,0.202,0.202,0,0,0,0,0,0,0,0,0,0,0,0,0,0.2007,0.2007,0.2028,0.2029,0.2029,0.2044,0.2044,0.2044,0.2029,0.2028,0.2028,0.2027,0.202,0.202,0.202,0,0,0,0,0,0,0,0,0,0,0,0,0,0.2017,0.2007,0.2028,0.2025,0.2024,0.2044,0.2044,0.2044,0.2029,0.2028,0.2027,0.2027,0.202,0.202,0.202,0.2036,0,0,0.2021,0.2022,0,0,0,0,0,0,0,0,0.2016,0.2017,0.2025,0.2025,0.2025,0.2035,0.2033,0.204,0.2029,0.2025,0.2027,0.2027,0.2024,0.2024,0.2027,0.2035,0.2035,0.2021,0.2022,0.2022,0.2022,0,0,0,0,0,0,0,0.2015,0.2017,0.2033,0.2025,0.2025,0.2029,0.2029,0.2035,0.2027,0.2026,0.2025,0.203,0.2024,0.2026,0.2026,0.2035,0.2021,0.2022,0.2022,0.2022,0.2087,0.2089,0,0,0,0,0,0,0.2017,0.2016,0.2032,0.2033,0.2021,0.203,0.203,0.2031,0.2027,0.2027,0.203,0.2029,0.2026,0.2026,0.2026,0.2069,0.2022,0.2022,0.2022,0.2086,0.2088,0.2089,0,0,0,0,0,0,0.2016,0.2018,0.2032,0.2026,0.2029,0.2031,0.2032,0.2032,0.2038,0.2031,0.203,0.2037,0.2026,0.2026,0.2042,0.2068,0.2022,0.2022,0.2084,0.2086,0.2088,0.214,0,0,0,0,0,0,0.2015,0.2017,0.202,0.2026,0.2029,0.2053,0.2033,0.2033,0.2043,0.2041,0.2037,0.2035,0.2025,0.2042,0.2042,0.2067,0.2023,0.2082,0.2085,0.2088,0.2136,0.2143,0.215,0,0,0,0,0,0.2014,0.2024,0.2019,0.2022,0.2031,0.2054,0.2056,0.2054,0.2044,0.2055,0.2053,0.2036,0.2061,0.2043,0.2044,0.2069,0.2081,0.2084,0.2087,0.2133,0.2142,0.215,0,0,0,0,0,0,0.2016,0.2023,0.2019,0.2029,0.2044,0.2052,0.2063,0.2061,0.2068,0.2067,0.2052,0.2052,0.2079,0.2069,0.205,0.2098,0.2069,0.2073,0.2104,0.2112,0.2119,0.2118,0.2023,0,0,0,0,0,0.2018,0.2025,0.2036,0.2045,0.2055,0.206,0.2068,0.2071,0.2078,0.208,0.2076,0.2079,0.2094,0.2098,0.2107,0.213,0.2123,0.2149,0.2156,0.2161,0.2162,0.2173,0.218,0.2101,0.2101,0.21,0,0,0.2019,0.2026,0.2029,0.2046,0.2056,0.2082,0.2063,0.2085,0.2108,0.2079,0.2105,0.2105,0.2107,0.2136,0.2147,0.2129,0.2185,0.2166,0.217,0.2168,0.2177,0.2185,0.2192,0.2103,0.2102,0.2102,0,0,0.2037,0.2036,0.2053,0.207,0.2093,0.2102,0.2111,0.2126,0.2134,0.2161,0.215,0.2164,0.218,0.2187,0.2193,0.2245,0.2223,0.225,0.2279,0.229,0.2296,0.2302,0.2316,0.2322,0.225,0.225,0.225,0,0.204,0.206,0.2063,0.2091,0.2107,0.2114,0.2143,0.2161,0.2179,0.2185,0.2179,0.2204,0.2208,0.2238,0.226,0.226,0.226,0.2245,0.2298,0.2303,0.2307,0.232,0.2326,0.2253,0.2252,0.2252,0.2252,0,0.2075,0.2094,0.211,0.2143,0.2162,0.219,0.2215,0.2234,0.2242,0.225,0.2278,0.2282,0.2289,0.2303,0.23,0.2337,0.2326,0.2307,0.2273,0.2318,0.233,0.2335,0.2257,0.2256,0.2255,0.2254,0,0,0.2071,0.2123,0.2126,0.2145,0.219,0.2206,0.2253,0.2285,0.23,0.2324,0.2339,0.2376,0.2359,0.2366,0.236,0.2376,0.2419,0.2358,0.2357,0.2366,0.2446,0.2434,0.2438,0.2405,0.2406,0.2407,0.2445,0,0.2096,0.2147,0.217,0.2216,0.2242,0.2265,0.2302,0.2331,0.2347,0.2365,0.2378,0.2393,0.239,0.2388,0.2407,0.2413,0.2433,0.241,0.2406,0.2407,0.2384,0.2444,0.2373,0.24,0.245,0.2451,0.2452,0,0.2118,0.215,0.2196,0.2241,0.2254,0.2281,0.2317,0.2355,0.2389,0.2398,0.2412,0.2412,0.2445,0.2428,0.2467,0.245,0.2457,0.2462,0.2463,0.2434,0.2404,0.2361,0.2408,0.236,0.246,0.2459,0.2458,0,0.2099,0.2162,0.2194,0.2212,0.2271,0.2287,0.2318,0.2355,0.2374,0.241,0.2414,0.2446,0.2456,0.2476,0.2498,0.248,0.2536,0.2507,0.2504,0.2503,0.2433,0.2424,0.2425,0.2536,0.2536,0.2536,0.2536,0,0.2111,0.2133,0.2183,0.22,0.2227,0.2274,0.2298,0.2332,0.2368,0.2379,0.2419,0.2428,0.2468,0.2499,0.2513,0.2536,0.2549,0.2524,0.2517,0.2452,0.2444,0.2391,0.2352,0.2537,0.2537,0.2537,0.2537,0,0.2083,0.2121,0.2154,0.2208,0.2218,0.2236,0.2276,0.2291,0.2338,0.2353,0.2363,0.2422,0.247,0.2513,0.2554,0.2552,0.2497,0.2578,0.2506,0.2489,0.2424,0.239,0.2231,0.2156,0.2572,0.2572,0.2572,0,0.2073,0.2089,0.2138,0.2143,0.2163,0.2192,0.2206,0.2263,0.2275,0.2339,0.2339,0.2405,0.2435,0.2516,0.2541,0.2579,0.2486,0.2522,0.2476,0.2427,0.2384,0.2234,0.2172,0.2409,0.2407,0.2406,0.2405,0,0.205,0.2065,0.2091,0.2099,0.2109,0.2118,0.2143,0.2144,0.2207,0.2226,0.2262,0.23,0.2405,0.2428,0.2501,0.2507,0.2384,0.25,0.2462,0.2273,0.2095,0.2018,0.2383,0.2396,0.2397,0.2397,0.2398,0.2398,0.202,0.2022,0.2044,0.2041,0.2049,0.2024,0.1999,0.2029,0.2033,0.2042,0.2146,0.2181,0.2303,0.24,0.2403,0.2379,0.2309,0.2314,0.2284,0.2143,0.2039,0.2393,0.2387,0.2388,0.2389,0.239,0.239,0,0.1973,0.1974,0.1977,0.1962,0.1929,0.1952,0.1936,0.1895,0.1864,0.193,0.1961,0.2066,0.2124,0.2217,0.2274,0.2197,0.2052,0.2121,0.1905,0.1862,0.2206,0.2172,0.2104,0.2104,0.2104,0.2104,0.2104,0.2104,0.1948,0.1929,0.1923,0.1841,0.1819,0.1732,0.1699,0.1661,0.1681,0.1687,0.1741,0.183,0.2006,0.2102,0.2089,0.2028,0.1845,0.1724,0.1699,0.1983,0.1998,0.2013,0.1973,0.1864,0.1864,0.127,0.1265,0.1262]},{"header":{"parameterUnit":"m.s-1","parameterCategory":2,"la1":30.2991,"la2":30.254,"lo1":-89.0895,"lo2":-89.0444,"dy":0.0017,"dx":0.0017,"nx":28,"ny":28,"refTime":"2025-04-03T09:00:00:Z","depth":"0","parameterNumber":3,"parameterNumberName":"V-component_of_CURRENTS"},"data":[0,0,0,0,0,0,0,0,0,0,0,0,0,0,0,0,0,0,0,0,0,0,0,0,0,0,0,0,0,0,0,0,0,0,0,0,0,0,0,0,0,0,0,0,0,0,0,0,0,0,0,0,0,0,0,0,0,0,0.0097,0.0097,0,0.007,0.0069,0.0069,0.0047,0.0047,0.0047,0.0047,-0.001,-0.0011,-0.0013,0,0,0,0,0,0,0,0,0,0,0,0,0,0.011,0.011,0.0097,0.0097,0.0097,0.007,0.0069,0.0069,0.0047,0.0047,0.0047,0.0047,-0.0009,-0.0011,-0.0013,0,0,0,0,0,0,0,0,0,0,0,0,0,0.0094,0.011,0.0097,0.0084,0.0083,0.007,0.0069,0.0069,0.0047,0.0047,0.0047,0.0047,-0.0009,-0.0011,-0.0013,-0.0024,0,0,-0.002,-0.002,0,0,0,0,0,0,0,0,0.0095,0.0094,0.0086,0.0085,0.0083,0.0063,0.0053,0.0037,0.0047,0.0059,0.0047,0.0047,0.0013,0.0009,0.0002,-0.0026,-0.0029,-0.002,-0.0021,-0.0022,-0.0023,0,0,0,0,0,0,0,0.0096,0.0095,0.0085,0.0086,0.0084,0.0072,0.007,0.005,0.0036,0.0058,0.0057,0.0056,0.0012,0.0005,0.0001,-0.003,-0.002,-0.0022,-0.0023,-0.0024,-0.0066,-0.0066,0,0,0,0,0,0,0.0104,0.0096,0.0086,0.0084,0.0091,0.0072,0.0069,0.0069,0.0036,0.0032,0.0056,0.0055,0.0008,0.0003,-0.0001,-0.0001,-0.0022,-0.0024,-0.0025,-0.0066,-0.0066,-0.0066,0,0,0,0,0,0,0.0104,0.0103,0.0087,0.0091,0.0088,0.0072,0.0071,0.0068,0.0064,0.0035,0.003,0.0056,0.0008,0.0002,-0.001,-0.0004,-0.0025,-0.0027,-0.0066,-0.0066,-0.0066,-0.001,0,0,0,0,0,0,0.0105,0.0104,0.0104,0.0091,0.0088,0.0089,0.0071,0.0068,0.0064,0.0063,0.0034,0.0028,0.0007,-0.0007,-0.0012,-0.0007,-0.0029,-0.0066,-0.0066,-0.0066,-0.0012,-0.0007,-0.0004,0,0,0,0,0,0.0105,0.011,0.0104,0.0103,0.009,0.009,0.0087,0.0074,0.0065,0.0069,0.0049,0.0029,-0.0009,-0.0008,-0.0015,-0.001,-0.0067,-0.0066,-0.0066,-0.0013,-0.0008,-0.0004,0,0,0,0,0,0,0.0116,0.0108,0.0102,0.0104,0.0101,0.0087,0.0089,0.0078,0.0066,0.0062,0.0033,0.0027,0.0018,-0.0005,-0.0003,-0.0022,-0.0042,-0.0043,-0.0,0.0004,0.0008,0.0025,-0.003,0,0,0,0,0,0.0119,0.0121,0.0113,0.0116,0.0117,0.0103,0.01,0.0092,0.008,0.0074,0.0054,0.0031,0.0013,0.0003,-0.0017,-0.0025,-0.0044,-0.0028,-0.0024,-0.0021,-0.0012,-0.0037,-0.0034,-0.0064,-0.0064,-0.0064,0,0,0.0123,0.0121,0.0121,0.0118,0.0114,0.0126,0.0101,0.0103,0.011,0.0069,0.0072,0.0044,0.0014,0.0005,-0.0001,-0.0011,-0.0022,-0.002,-0.0017,-0.001,-0.0036,-0.0033,-0.003,-0.0064,-0.0064,-0.0064,0,0,0.0143,0.0133,0.0146,0.0148,0.0147,0.0141,0.0145,0.0134,0.0129,0.0124,0.0097,0.0078,0.005,0.0033,0.0019,0.0032,-0.0,0.002,0.0054,0.003,0.0033,0.0035,0.002,0.002,0.0022,0.0022,0.0022,0,0.0149,0.0166,0.015,0.0167,0.0177,0.0153,0.0177,0.0167,0.0153,0.0152,0.0133,0.0093,0.0065,0.0058,0.0061,0.0042,0.0025,0.0041,0.0036,0.0038,0.0039,0.0023,0.0023,0.0025,0.0025,0.0024,0.0024,0,0.0182,0.0197,0.0208,0.0223,0.0228,0.0244,0.0235,0.0236,0.0221,0.0207,0.0193,0.0152,0.013,0.0113,0.009,0.0084,0.0069,0.0045,0.0028,0.0046,0.0028,0.0027,0.0029,0.0028,0.0027,0.0026,0,0,0.02,0.0226,0.0232,0.0255,0.0262,0.0274,0.0287,0.0295,0.0307,0.0273,0.0282,0.0239,0.0208,0.019,0.0153,0.0128,0.0118,0.0094,0.0092,0.0088,0.0072,0.0071,0.0069,0.0092,0.0092,0.0092,0.0059,0,0.0237,0.0285,0.0286,0.0334,0.0363,0.0353,0.0373,0.0371,0.0354,0.0353,0.0302,0.0289,0.024,0.0227,0.0196,0.0139,0.0116,0.013,0.0049,0.0047,0.005,0.0068,0.0119,0.0094,0.0057,0.0057,0.0057,0,0.0276,0.0306,0.0359,0.0404,0.0415,0.0435,0.0463,0.0476,0.046,0.0444,0.0413,0.0372,0.0335,0.0285,0.0203,0.0214,0.0152,0.0102,0.0099,0.0079,0.0044,0.0068,0.0093,0.0032,0.0054,0.0055,0.0055,0,0.0309,0.0361,0.0407,0.0422,0.0461,0.0483,0.0501,0.0502,0.0523,0.0497,0.0499,0.0441,0.0418,0.0333,0.0233,0.0217,0.0141,0.0104,0.0047,0.0046,0.0064,0.0066,0.0028,0.0048,0.0048,0.0048,0.0048,0,0.0355,0.0395,0.0426,0.0453,0.0513,0.0522,0.0573,0.0576,0.0587,0.0613,0.0547,0.0553,0.0428,0.0368,0.0264,0.0161,0.0165,0.0062,0.0039,0.0086,0.0089,0.0015,-0.0044,0.0047,0.0047,0.0048,0.0048,0,0.0389,0.0408,0.0467,0.0514,0.0531,0.0573,0.0628,0.0663,0.066,0.069,0.0687,0.0643,0.057,0.0446,0.0315,0.0213,0.0066,0.0066,0.0135,0.012,0.0004,-0.0054,-0.0124,-0.0187,-0.0001,-0.0001,-0.0001,0,0.0414,0.0445,0.0508,0.0544,0.0568,0.0625,0.0669,0.0694,0.0731,0.0749,0.0772,0.0722,0.0702,0.0519,0.0346,0.018,0.0077,0.0094,0.0068,0.0016,-0.0066,-0.0097,-0.0147,0.0115,0.0116,0.0116,0.0117,0,0.0463,0.0479,0.0525,0.0593,0.0644,0.0707,0.0767,0.0812,0.0842,0.0876,0.0913,0.0905,0.0754,0.0633,0.0405,0.0272,0.0057,0.0101,0.0031,0.0012,-0.0007,-0.0082,0.0119,0.0123,0.0122,0.0122,0.0122,0.0121,0.0497,0.0534,0.0583,0.0647,0.0706,0.0774,0.0827,0.0896,0.097,0.1027,0.1029,0.1055,0.089,0.0606,0.0409,0.0133,0.0089,0.0053,-0.0015,-0.0042,-0.0094,0.0125,0.0109,0.0109,0.0108,0.0108,0.0107,0,0.0538,0.0572,0.0634,0.0704,0.0762,0.0787,0.0881,0.0933,0.1024,0.1119,0.1165,0.117,0.0945,0.0682,0.0326,0.009,-0.0025,-0.0046,-0.0071,-0.0125,0.007,0.0086,0.0086,0.0086,0.0086,0.0086,0.0086,0.0086,0.0561,0.0616,0.0641,0.073,0.0778,0.0848,0.0898,0.0988,0.1079,0.1216,0.1307,0.1365,0.1272,0.0628,0.0184,0.0019,-0.0181,-0.0206,-0.0338,-0.0183,-0.0179,-0.0174,-0.0171,-0.0225,-0.0226,-0.0474,-0.0477,-0.0478]}],[{"header":{"parameterUnit":"m.s-1","parameterCategory":2,"la1":30.2991,"la2":30.254,"lo1":-89.0895,"lo2":-89.0444,"dy":0.0017,"dx":0.0017,"nx":28,"ny":28,"refTime":"2025-04-03T09:00:00:Z","depth":"2","parameterNumber":2,"parameterNumberName":"U-component_of_CURRENTS"},"data":[0,0,0,0,0,0,0,0,0,0,0,0,0,0,0,0,0,0,0,0,0,0,0,0,0,0,0,0,0,0,0,0,0,0,0,0,0,0,0,0,0,0,0,0,0,0,0,0,0,0,0,0,0,0,0,0,0,0,0.2037,0.2037,0,0.2053,0.2053,0.2053,0.2041,0.204,0.204,0.2039,0.2036,0.2036,0.2037,0,0,0,0,0,0,0,0,0,0,0,0,0,0.2015,0.2015,0.2037,0.2037,0.2037,0.2053,0.2053,0.2053,0.2041,0.204,0.204,0.2039,0.2036,0.2036,0.2037,0,0,0,0,0,0,0,0,0,0,0,0,0,0.2025,0.2015,0.2037,0.2034,0.2034,0.2053,0.2053,0.2053,0.2041,0.204,0.204,0.2039,0.2036,0.2036,0.2037,0.2051,0,0,0.2038,0.2038,0,0,0,0,0,0,0,0,0.2025,0.2026,0.2034,0.2034,0.2035,0.2045,0.2044,0.2052,0.2041,0.2037,0.2039,0.2039,0.2039,0.2039,0.2041,0.205,0.205,0.2038,0.2038,0.2038,0.2038,0,0,0,0,0,0,0,0.2024,0.2025,0.2041,0.2035,0.2035,0.2039,0.204,0.2045,0.2039,0.2037,0.2036,0.2041,0.2038,0.2041,0.2041,0.205,0.2038,0.2038,0.2039,0.2039,0.2105,0.2106,0,0,0,0,0,0,0.2025,0.2025,0.2041,0.2042,0.203,0.204,0.2041,0.2041,0.204,0.2039,0.2041,0.204,0.2041,0.2041,0.2041,0.2086,0.2038,0.2039,0.2039,0.2103,0.2105,0.2107,0,0,0,0,0,0,0.2024,0.2026,0.204,0.2035,0.2037,0.2041,0.2042,0.2042,0.2049,0.2044,0.2042,0.205,0.204,0.204,0.2058,0.2084,0.2039,0.2039,0.2102,0.2104,0.2106,0.2157,0,0,0,0,0,0,0.2023,0.2026,0.2028,0.2035,0.2038,0.2059,0.2043,0.2043,0.2053,0.2052,0.205,0.2049,0.204,0.2057,0.2058,0.2084,0.204,0.21,0.2103,0.2105,0.2153,0.216,0.2167,0,0,0,0,0,0.2023,0.203,0.2028,0.203,0.204,0.206,0.2062,0.2061,0.2055,0.2064,0.2065,0.2049,0.2076,0.2059,0.206,0.2086,0.2098,0.2102,0.2105,0.215,0.2159,0.2166,0,0,0,0,0,0,0.2022,0.203,0.2028,0.2037,0.2051,0.2058,0.2067,0.2068,0.2077,0.2076,0.2065,0.2065,0.2093,0.2085,0.2066,0.2115,0.2086,0.209,0.212,0.2129,0.2135,0.2133,0.204,0,0,0,0,0,0.2024,0.203,0.2041,0.205,0.2057,0.2064,0.2072,0.2075,0.2083,0.2086,0.2086,0.2092,0.2108,0.2113,0.2123,0.2146,0.2139,0.2165,0.2172,0.2178,0.2179,0.2189,0.2197,0.2118,0.2118,0.2118,0,0,0.2026,0.2032,0.2035,0.2051,0.2059,0.2083,0.2067,0.2086,0.2111,0.2085,0.2115,0.2116,0.2121,0.215,0.2162,0.2145,0.2201,0.2182,0.2187,0.2184,0.2193,0.2201,0.2207,0.212,0.212,0.212,0,0,0.2042,0.204,0.2055,0.2071,0.2091,0.2099,0.2108,0.2123,0.2133,0.2165,0.2156,0.2171,0.2193,0.22,0.2208,0.2258,0.2238,0.2265,0.2294,0.2305,0.2311,0.2316,0.233,0.2335,0.2265,0.2265,0.2265,0,0.2046,0.2063,0.2065,0.209,0.2103,0.211,0.2136,0.2157,0.2178,0.2186,0.2183,0.2214,0.2219,0.2251,0.2273,0.2274,0.2274,0.2261,0.2312,0.2317,0.2322,0.2334,0.234,0.2268,0.2268,0.2267,0.2267,0,0.2078,0.2094,0.2107,0.2138,0.2156,0.2178,0.2205,0.2226,0.2238,0.225,0.2282,0.2288,0.2299,0.2314,0.2313,0.2349,0.2339,0.2321,0.2288,0.2333,0.2343,0.2348,0.2272,0.2271,0.227,0.227,0,0,0.2072,0.2119,0.2122,0.2141,0.2179,0.2195,0.2243,0.2275,0.2295,0.2322,0.2342,0.2382,0.2367,0.2375,0.2371,0.2387,0.243,0.2371,0.2371,0.2378,0.2458,0.2442,0.2445,0.2418,0.2419,0.2419,0.2456,0,0.2094,0.2142,0.216,0.2206,0.223,0.2251,0.2291,0.2323,0.2341,0.2365,0.2379,0.2399,0.2398,0.2398,0.2418,0.2424,0.2444,0.2422,0.2418,0.2419,0.2393,0.2451,0.2232,0.2246,0.2461,0.2462,0.2462,0,0.2114,0.2142,0.2184,0.2232,0.2243,0.2272,0.231,0.235,0.2388,0.24,0.2415,0.2417,0.2451,0.2437,0.2476,0.246,0.2467,0.2473,0.2474,0.2441,0.2412,0.2234,0.2246,0.2471,0.247,0.2469,0.2469,0,0.2096,0.2156,0.2184,0.2201,0.2259,0.2278,0.2311,0.2352,0.2373,0.2412,0.2417,0.245,0.2462,0.2483,0.2505,0.2489,0.2544,0.2516,0.251,0.2509,0.2313,0.2294,0.2545,0.2545,0.2545,0.2545,0.2544,0,0.2104,0.2124,0.2177,0.219,0.2222,0.227,0.2297,0.2335,0.2371,0.2384,0.2424,0.2433,0.2475,0.2505,0.2519,0.2541,0.2556,0.2529,0.2522,0.2328,0.231,0.249,0.2484,0.2546,0.2546,0.2545,0.2545,0,0.2076,0.211,0.2144,0.22,0.2212,0.2236,0.228,0.2298,0.2345,0.2359,0.237,0.2428,0.2475,0.2518,0.2559,0.2556,0.2578,0.258,0.236,0.2327,0.253,0.2526,0.257,0.257,0.257,0.257,0.257,0,0.2066,0.2082,0.2133,0.214,0.216,0.2195,0.2211,0.2271,0.2282,0.2346,0.2346,0.241,0.2436,0.2514,0.2512,0.254,0.2589,0.2364,0.2299,0.2547,0.2535,0.2531,0.2527,0.2058,0.2054,0.205,0.2047,0,0.2042,0.2058,0.2081,0.2096,0.211,0.2123,0.2152,0.2153,0.2216,0.2232,0.2265,0.23,0.2376,0.2312,0.2371,0.2355,0.2344,0.2297,0.2597,0.2102,0.2071,0.2058,0.2068,0.2016,0.2019,0.2022,0.2023,0.2025,0.2013,0.2018,0.2038,0.2044,0.2053,0.2033,0.2011,0.2034,0.2035,0.2026,0.2127,0.2111,0.2152,0.213,0.2081,0.2046,0.2215,0.211,0.2117,0.2128,0.2079,0.2051,0.1984,0.1986,0.1989,0.1991,0.1993,0,0.197,0.1972,0.1979,0.1969,0.1933,0.1964,0.1949,0.1898,0.1856,0.1884,0.1891,0.1756,0.1723,0.1771,0.1672,0.1702,0.1641,0.1632,0.1519,0.1553,0.1582,0.1501,0.1254,0.1251,0.1249,0.1247,0,0,0.1945,0.1923,0.1919,0.1839,0.1826,0.1738,0.1706,0.1652,0.164,0.1572,0.1542,0.1637,0.1725,0.1458,0.1436,0.1326,0.1421,0.1271,0.1867,0.1768,0.1794,0.1869,0.1786,0,0,0,0,0]},{"header":{"parameterUnit":"m.s-1","parameterCategory":2,"la1":30.2991,"la2":30.254,"lo1":-89.0895,"lo2":-89.0444,"dy":0.0017,"dx":0.0017,"nx":28,"ny":28,"refTime":"2025-04-03T09:00:00:Z","depth":"2","parameterNumber":3,"parameterNumberName":"V-component_of_CURRENTS"},"data":[0,0,0,0,0,0,0,0,0,0,0,0,0,0,0,0,0,0,0,0,0,0,0,0,0,0,0,0,0,0,0,0,0,0,0,0,0,0,0,0,0,0,0,0,0,0,0,0,0,0,0,0,0,0,0,0,0,0,0.0046,0.0046,0,0.0019,0.0019,0.0019,-0.0003,-0.0003,-0.0003,-0.0004,-0.0059,-0.006,-0.0062,0,0,0,0,0,0,0,0,0,0,0,0,0,0.0058,0.0058,0.0046,0.0046,0.0046,0.0019,0.0019,0.0018,-0.0003,-0.0003,-0.0003,-0.0004,-0.0059,-0.006,-0.0062,0,0,0,0,0,0,0,0,0,0,0,0,0,0.0043,0.0058,0.0046,0.0033,0.0031,0.002,0.0019,0.0018,-0.0003,-0.0003,-0.0003,-0.0004,-0.0058,-0.006,-0.0062,-0.0072,0,0,-0.0068,-0.0069,0,0,0,0,0,0,0,0,0.0044,0.0042,0.0035,0.0034,0.0032,0.0012,0.0003,-0.0013,-0.0003,0.0008,-0.0004,-0.0004,-0.0037,-0.0041,-0.0047,-0.0074,-0.0077,-0.0069,-0.007,-0.0071,-0.0071,0,0,0,0,0,0,0,0.0045,0.0043,0.0034,0.0035,0.0033,0.0021,0.0019,-0.0,-0.0014,0.0007,0.0006,0.0005,-0.0038,-0.0045,-0.0048,-0.0077,-0.0068,-0.007,-0.0072,-0.0072,-0.0111,-0.0111,0,0,0,0,0,0,0.0052,0.0044,0.0035,0.0034,0.0039,0.0021,0.0019,0.0018,-0.0014,-0.0018,0.0006,0.0004,-0.0041,-0.0046,-0.005,-0.0048,-0.0071,-0.0073,-0.0074,-0.0111,-0.0111,-0.011,0,0,0,0,0,0,0.0053,0.0052,0.0036,0.0039,0.0037,0.0021,0.0021,0.0017,0.0014,-0.0015,-0.002,0.0006,-0.0041,-0.0047,-0.0058,-0.0051,-0.0074,-0.0075,-0.0111,-0.0111,-0.0111,-0.0053,0,0,0,0,0,0,0.0053,0.0052,0.0053,0.004,0.0037,0.0037,0.0021,0.0017,0.0014,0.0012,-0.0016,-0.0022,-0.0042,-0.0055,-0.006,-0.0054,-0.0077,-0.0112,-0.0111,-0.0111,-0.0055,-0.0051,-0.0047,0,0,0,0,0,0.0053,0.0058,0.0053,0.0052,0.0039,0.0038,0.0035,0.0023,0.0014,0.0018,-0.0,-0.0021,-0.0057,-0.0056,-0.0063,-0.0057,-0.0112,-0.0111,-0.0111,-0.0057,-0.0052,-0.0047,0,0,0,0,0,0,0.0064,0.0056,0.005,0.0052,0.0049,0.0035,0.0036,0.0027,0.0015,0.0012,-0.0016,-0.0022,-0.003,-0.0052,-0.0051,-0.0068,-0.0089,-0.0089,-0.0046,-0.0041,-0.0037,-0.0021,-0.0079,0,0,0,0,0,0.0067,0.0069,0.0061,0.0063,0.0063,0.005,0.0047,0.004,0.0028,0.0022,0.0004,-0.0018,-0.0034,-0.0043,-0.0062,-0.0069,-0.009,-0.0071,-0.0067,-0.0064,-0.0056,-0.0081,-0.0079,-0.0109,-0.0109,-0.0109,0,0,0.0072,0.0068,0.0068,0.0066,0.0061,0.0072,0.0048,0.0048,0.0058,0.0018,0.0022,-0.0004,-0.0033,-0.0039,-0.0046,-0.0056,-0.0065,-0.0063,-0.0059,-0.0053,-0.0081,-0.0078,-0.0075,-0.0109,-0.0109,-0.0109,0,0,0.009,0.008,0.0091,0.0094,0.0092,0.0086,0.0089,0.0079,0.0074,0.0073,0.0047,0.003,0.0005,-0.0011,-0.0024,-0.0009,-0.0042,-0.002,0.0014,-0.0011,-0.0008,-0.0006,-0.0022,-0.0022,-0.0018,-0.0018,-0.0018,0,0.0097,0.0112,0.0095,0.0112,0.0121,0.0098,0.0119,0.0112,0.01,0.01,0.0082,0.0047,0.002,0.0015,0.0019,0.0001,-0.0017,0.0,-0.0004,-0.0003,-0.0002,-0.0019,-0.002,-0.0015,-0.0015,-0.0016,-0.0016,0,0.0128,0.0142,0.0151,0.0166,0.0171,0.0184,0.0178,0.018,0.0167,0.0155,0.0144,0.0105,0.0086,0.007,0.0049,0.0044,0.0028,0.0005,-0.0013,0.0005,-0.0014,-0.0016,-0.0011,-0.0012,-0.0013,-0.0014,0,0,0.0146,0.0169,0.0174,0.0197,0.0202,0.0214,0.0229,0.0238,0.0252,0.0222,0.0232,0.0193,0.0164,0.0148,0.0112,0.0088,0.0077,0.0054,0.0051,0.0045,0.0028,0.0027,0.0024,0.0051,0.0051,0.0051,0.0015,0,0.018,0.0226,0.0225,0.0273,0.03,0.0291,0.0314,0.0314,0.03,0.03,0.0252,0.0242,0.0196,0.0185,0.0154,0.0097,0.0074,0.009,0.0006,0.0004,0.0005,0.0023,0.0027,-0.0004,0.0013,0.0013,0.0012,0,0.0218,0.0246,0.0296,0.0342,0.0352,0.0374,0.0404,0.0419,0.0406,0.0391,0.0362,0.0323,0.0287,0.0239,0.0158,0.0169,0.0108,0.0059,0.0055,0.0034,-0.0001,-0.0022,-0.0008,0.0009,0.0009,0.0009,0.001,0,0.025,0.03,0.0343,0.0357,0.0398,0.042,0.0441,0.0445,0.0467,0.0444,0.0445,0.039,0.0367,0.0283,0.0184,0.017,0.0091,0.0056,-0.0001,-0.0002,-0.0024,-0.0026,0.0,0.0,0.0,0.0,0.0,0,0.0293,0.033,0.0363,0.0388,0.045,0.0461,0.0513,0.052,0.0531,0.0557,0.0493,0.0498,0.0376,0.0315,0.0213,0.011,0.0113,0.0014,-0.001,-0.0004,-0.0003,-0.0017,-0.0018,-0.0001,-0.0001,-0.0001,-0.0,0,0.0325,0.0342,0.04,0.0448,0.0467,0.0512,0.0568,0.0604,0.0602,0.0631,0.0629,0.0584,0.051,0.0388,0.0258,0.0159,0.0051,0.0012,0.0035,0.0015,-0.0034,-0.0032,-0.0055,-0.0056,-0.0056,-0.0056,-0.0056,0,0.0348,0.0379,0.0443,0.0479,0.0502,0.0563,0.0609,0.0635,0.0671,0.0687,0.0707,0.0657,0.0631,0.0449,0.0271,0.0105,0.0072,-0.0011,-0.0041,-0.0018,-0.0039,-0.0036,-0.0034,-0.0049,-0.0049,-0.0049,-0.0049,0,0.0394,0.041,0.0453,0.0527,0.0579,0.0644,0.0705,0.0747,0.0777,0.0806,0.0838,0.0825,0.0665,0.0505,0.0278,0.0156,0.0015,-0.0018,-0.0003,-0.0031,-0.0014,-0.0033,-0.0031,-0.005,-0.005,-0.005,-0.005,-0.005,0.0426,0.0462,0.051,0.0581,0.064,0.0709,0.0762,0.0817,0.0885,0.0907,0.0918,0.0878,0.0717,0.0422,0.0235,0.0022,0.0034,-0.0064,-0.0063,-0.0063,-0.005,-0.0034,-0.0072,-0.0072,-0.0072,-0.0072,-0.0072,0,0.0468,0.0501,0.0564,0.0638,0.069,0.0724,0.0815,0.0838,0.0906,0.0935,0.095,0.0773,0.0625,0.0429,0.0126,-0.0043,-0.0069,-0.0114,-0.0107,-0.0105,-0.0103,-0.0093,-0.0126,-0.0127,-0.0127,-0.0128,0,0,0.049,0.0541,0.0566,0.0651,0.0705,0.0757,0.0805,0.0841,0.0866,0.0871,0.0855,0.0851,0.0659,0.0423,0.0206,0.0036,-0.0008,-0.0009,0.0053,0.0088,0.0091,-0.0054,-0.0033,0,0,0,0,0]}],[{"header":{"parameterUnit":"m.s-1","parameterCategory":2,"la1":30.2991,"la2":30.254,"lo1":-89.0895,"lo2":-89.0444,"dy":0.0017,"dx":0.0017,"nx":28,"ny":28,"refTime":"2025-04-03T09:00:00:Z","depth":"4","parameterNumber":2,"parameterNumberName":"U-component_of_CURRENTS"},"data":[0,0,0,0,0,0,0,0,0,0,0,0,0,0,0,0,0,0,0,0,0,0,0,0,0,0,0,0,0,0,0,0,0,0,0,0,0,0,0,0,0,0,0,0,0,0,0,0,0,0,0,0,0,0,0,0,0,0,0.1281,0.1281,0,0.1322,0.1322,0.1323,0.1369,0.137,0.137,0.1371,0.1448,0.1449,0.1451,0,0,0,0,0,0,0,0,0,0,0,0,0,0.1266,0.1266,0.1281,0.1281,0.1282,0.1322,0.1322,0.1323,0.1369,0.137,0.1371,0.1371,0.1447,0.1449,0.1451,0,0,0,0,0,0,0,0,0,0,0,0,0,0.1286,0.1265,0.1281,0.1309,0.1312,0.1322,0.1322,0.1323,0.1369,0.137,0.1371,0.1372,0.1447,0.1449,0.1451,0.1444,0,0,0.1457,0.1458,0,0,0,0,0,0,0,0,0.1285,0.1286,0.1305,0.1307,0.1311,0.1341,0.1345,0.1365,0.1369,0.1347,0.1371,0.1372,0.1415,0.142,0.1425,0.1447,0.1451,0.1458,0.1459,0.146,0.146,0,0,0,0,0,0,0,0.1283,0.1285,0.1297,0.1305,0.1309,0.1329,0.1332,0.1349,0.1376,0.1349,0.1353,0.1357,0.1417,0.1422,0.1427,0.1452,0.1458,0.1459,0.1461,0.1462,0.1573,0.1575,0,0,0,0,0,0,0.1276,0.1283,0.1296,0.1298,0.13,0.1328,0.1332,0.1331,0.1375,0.1382,0.1356,0.1359,0.1418,0.1424,0.143,0.1512,0.146,0.1462,0.1463,0.1571,0.1573,0.1575,0,0,0,0,0,0,0.1275,0.1276,0.1294,0.1292,0.1296,0.1327,0.1325,0.1331,0.1365,0.1379,0.1388,0.1387,0.1419,0.1427,0.1476,0.1512,0.1463,0.1465,0.1569,0.1572,0.1574,0.162,0,0,0,0,0,0,0.1274,0.1275,0.1288,0.1291,0.1296,0.1322,0.1324,0.1331,0.1364,0.1369,0.1408,0.1415,0.1421,0.1473,0.1478,0.1514,0.1466,0.1567,0.1571,0.1574,0.1617,0.1624,0.1631,0,0,0,0,0,0.1273,0.1281,0.1288,0.1291,0.1306,0.1323,0.1328,0.1353,0.1365,0.1386,0.1416,0.1415,0.1497,0.1476,0.1481,0.1519,0.1566,0.157,0.1573,0.1614,0.1623,0.163,0,0,0,0,0,0,0.1286,0.1287,0.1294,0.1304,0.1323,0.1331,0.1355,0.1367,0.1405,0.142,0.1432,0.1441,0.1499,0.1502,0.1479,0.1562,0.1533,0.1538,0.1562,0.157,0.1577,0.1579,0.1468,0,0,0,0,0,0.1291,0.1298,0.1305,0.1319,0.1329,0.1347,0.1363,0.1379,0.1404,0.1423,0.1449,0.1481,0.1513,0.1537,0.1562,0.1604,0.1605,0.1634,0.1641,0.1647,0.1654,0.1685,0.1695,0.1588,0.1588,0.1588,0,0,0.1301,0.1303,0.1309,0.1323,0.134,0.1356,0.136,0.1392,0.1416,0.1424,0.1479,0.1507,0.153,0.1581,0.1607,0.1593,0.1679,0.1652,0.1657,0.166,0.169,0.1701,0.171,0.159,0.159,0.159,0,0,0.131,0.1326,0.1332,0.1348,0.1375,0.1387,0.1401,0.1427,0.1455,0.1499,0.1518,0.157,0.1611,0.1642,0.1658,0.1718,0.1713,0.1733,0.1772,0.1802,0.1811,0.1819,0.183,0.1839,0.1737,0.1738,0.1738,0,0.1328,0.1329,0.1341,0.1352,0.1371,0.1401,0.1419,0.1447,0.149,0.1521,0.1526,0.1616,0.1638,0.1703,0.173,0.1734,0.1744,0.1735,0.1811,0.1818,0.1825,0.1835,0.1844,0.174,0.174,0.174,0.1739,0,0.1327,0.1346,0.1356,0.1375,0.14,0.1426,0.1457,0.1501,0.1538,0.1565,0.1646,0.1682,0.1737,0.1757,0.1763,0.1836,0.1824,0.1813,0.1785,0.1839,0.1846,0.1854,0.1744,0.1743,0.1742,0.1742,0,0,0.1325,0.135,0.1359,0.1371,0.1418,0.1432,0.1489,0.1542,0.1587,0.1644,0.1703,0.1772,0.1807,0.1829,0.1854,0.1887,0.1946,0.1879,0.188,0.1883,0.2009,0.1878,0.1874,0.1952,0.1953,0.1955,0.1991,0,0.133,0.1344,0.1364,0.1399,0.141,0.1463,0.1507,0.1565,0.1625,0.1692,0.1754,0.182,0.1829,0.1872,0.1909,0.194,0.1971,0.1937,0.1963,0.1963,0.1834,0.188,0.1961,0.1997,0.1999,0.2,0.2001,0,0.1319,0.1332,0.1359,0.1403,0.1417,0.1452,0.1539,0.1583,0.1685,0.1735,0.182,0.1868,0.1952,0.194,0.202,0.2001,0.2015,0.2026,0.2027,0.1894,0.1847,0.1935,0.2016,0.2015,0.2013,0.2012,0.2012,0,0.129,0.133,0.1352,0.1367,0.1423,0.1465,0.1512,0.1607,0.1659,0.1778,0.1832,0.1926,0.1984,0.2025,0.2064,0.2052,0.2128,0.2106,0.1999,0.199,0.2075,0.2067,0.2156,0.2156,0.2156,0.2156,0.2155,0,0.1267,0.129,0.1345,0.1355,0.1402,0.1451,0.1523,0.159,0.1693,0.1753,0.1858,0.1913,0.2011,0.2066,0.2084,0.2063,0.2146,0.2011,0.1994,0.2094,0.2087,0.2081,0.2071,0.2157,0.2157,0.2156,0.2156,0,0.1225,0.126,0.1289,0.1356,0.1385,0.1422,0.1522,0.1567,0.1676,0.1762,0.1805,0.1927,0.1987,0.206,0.2123,0.2072,0.2075,0.2048,0.2152,0.2139,0.191,0.1903,0.1921,0.1917,0.1913,0.191,0.1908,0,0.1197,0.1206,0.1283,0.1307,0.1345,0.1408,0.145,0.1556,0.1605,0.1747,0.1774,0.1883,0.1948,0.1929,0.2009,0.2028,0.201,0.1993,0.1949,0.1906,0.1889,0.1887,0.1885,0.1902,0.1901,0.19,0.1899,0,0.1148,0.119,0.1214,0.1265,0.1312,0.1351,0.1421,0.1444,0.1557,0.1669,0.1702,0.1738,0.1798,0.184,0.1874,0.1884,0.1992,0.1955,0.1962,0.192,0.1883,0.1869,0.1871,0.1887,0.1888,0.189,0.189,0,0.1121,0.113,0.1173,0.1206,0.1262,0.1275,0.1317,0.1356,0.141,0.1559,0.156,0.1669,0.177,0.1765,0.1795,0.1797,0.1769,0.1707,0.1727,0.1741,0.1667,0.1593,0.1496,0,0,0,0,0,0.1086,0.1085,0.1108,0.1133,0.1182,0.1215,0.1288,0.133,0.1437,0.1418,0.1484,0.153,0.1565,0.1622,0.159,0.1727,0.1785,0.1682,0.1726,0.1817,0.1832,0.1762,0,0,0,0,0,0,0.1062,0.1087,0.1081,0.1065,0.1071,0.1111,0.1152,0.1219,0.1212,0.1326,0.1353,0.144,0.1501,0.1571,0.1563,0.1581,0.1577,0.1752,0.1748,0.1809,0.1822,0.1834,0.1767,0,0,0,0,0]},{"header":{"parameterUnit":"m.s-1","parameterCategory":2,"la1":30.2991,"la2":30.254,"lo1":-89.0895,"lo2":-89.0444,"dy":0.0017,"dx":0.0017,"nx":28,"ny":28,"refTime":"2025-04-03T09:00:00:Z","depth":"4","parameterNumber":3,"parameterNumberName":"V-component_of_CURRENTS"},"data":[0,0,0,0,0,0,0,0,0,0,0,0,0,0,0,0,0,0,0,0,0,0,0,0,0,0,0,0,0,0,0,0,0,0,0,0,0,0,0,0,0,0,0,0,0,0,0,0,0,0,0,0,0,0,0,0,0,0,-0.0002,-0.0002,0,-0.0014,-0.0014,-0.0014,-0.0041,-0.0042,-0.0042,-0.0042,-0.0085,-0.0085,-0.0086,0,0,0,0,0,0,0,0,0,0,0,0,0,-0.0003,-0.0003,-0.0002,-0.0002,-0.0002,-0.0014,-0.0014,-0.0014,-0.0041,-0.0042,-0.0042,-0.0043,-0.0085,-0.0085,-0.0086,0,0,0,0,0,0,0,0,0,0,0,0,0,-0.0008,-0.0003,-0.0002,-0.0016,-0.0017,-0.0014,-0.0014,-0.0015,-0.0041,-0.0042,-0.0042,-0.0043,-0.0084,-0.0085,-0.0086,-0.0078,0,0,-0.0089,-0.009,0,0,0,0,0,0,0,0,-0.0008,-0.0008,-0.0014,-0.0015,-0.0016,-0.0026,-0.003,-0.0037,-0.0041,-0.0033,-0.0042,-0.0043,-0.0067,-0.0069,-0.0071,-0.008,-0.0082,-0.009,-0.009,-0.0091,-0.0091,0,0,0,0,0,0,0,-0.0008,-0.0008,-0.0007,-0.0014,-0.0015,-0.0022,-0.0024,-0.0032,-0.0047,-0.0033,-0.0035,-0.0035,-0.0068,-0.007,-0.0072,-0.0083,-0.009,-0.009,-0.0091,-0.0092,-0.0095,-0.0095,0,0,0,0,0,0,-0.0004,-0.0007,-0.0007,-0.0008,-0.0013,-0.0022,-0.0024,-0.0023,-0.0046,-0.005,-0.0035,-0.0036,-0.0068,-0.0071,-0.0074,-0.0062,-0.0091,-0.0092,-0.0092,-0.0096,-0.0095,-0.0095,0,0,0,0,0,0,-0.0004,-0.0003,-0.0006,-0.0007,-0.0008,-0.0021,-0.002,-0.0023,-0.0027,-0.0047,-0.0051,-0.0036,-0.0068,-0.0072,-0.0076,-0.0064,-0.0092,-0.0093,-0.0096,-0.0096,-0.0095,-0.0041,0,0,0,0,0,0,-0.0004,-0.0003,-0.0001,-0.0007,-0.0008,0.0001,-0.0019,-0.0022,-0.0026,-0.0028,-0.0049,-0.0054,-0.0069,-0.0075,-0.0077,-0.0066,-0.0094,-0.0097,-0.0096,-0.0095,-0.0044,-0.0039,-0.0035,0,0,0,0,0,-0.0004,0.0005,-0.0001,-0.0001,-0.0005,0.0002,0.0001,-0.0011,-0.0025,-0.002,-0.0035,-0.0054,-0.0071,-0.0075,-0.0078,-0.0067,-0.0098,-0.0096,-0.0095,-0.0046,-0.004,-0.0035,0,0,0,0,0,0,0.0005,0.0003,-0.0004,0.0003,0.0004,-0.0002,0.0001,-0.0009,-0.0016,-0.0022,-0.0045,-0.0049,-0.005,-0.0065,-0.0069,-0.0066,-0.0088,-0.0087,-0.0049,-0.0044,-0.0039,-0.0034,-0.0095,0,0,0,0,0,0.0009,0.0014,0.0011,0.0017,0.0018,0.0009,0.0009,0.0002,-0.0005,-0.001,-0.0023,-0.0039,-0.0046,-0.0051,-0.0061,-0.0056,-0.008,-0.0053,-0.0048,-0.0044,-0.0042,-0.007,-0.0068,-0.0091,-0.0091,-0.0091,0,0,0.0013,0.0013,0.0015,0.0019,0.0017,0.003,0.0007,0.0012,0.0022,-0.0013,-0.0005,-0.0023,-0.0042,-0.0037,-0.0039,-0.0049,-0.0049,-0.0042,-0.0039,-0.0039,-0.0069,-0.0066,-0.0065,-0.009,-0.009,-0.009,0,0,0.003,0.0025,0.0037,0.0043,0.0045,0.0044,0.0047,0.0043,0.004,0.0046,0.0023,0.0013,0.0003,-0.0006,-0.0013,0.001,-0.0025,0.0006,0.0035,0.0009,0.001,0.0011,-0.001,-0.0011,0.0009,0.001,0.001,0,0.0034,0.005,0.0042,0.0059,0.0068,0.0053,0.0073,0.0073,0.0068,0.0068,0.0054,0.0036,0.0019,0.0023,0.0031,0.0021,-0.0001,0.0018,0.0015,0.0015,0.0015,-0.0007,-0.0009,0.0012,0.0012,0.0012,0.0011,0,0.0063,0.0076,0.0086,0.0103,0.0112,0.0127,0.0129,0.0135,0.0126,0.012,0.0117,0.0093,0.008,0.0075,0.0062,0.0059,0.0042,0.0023,0.0001,0.0021,-0.0003,-0.0006,0.0016,0.0015,0.0014,0.0014,0,0,0.0072,0.01,0.0104,0.012,0.0137,0.0148,0.0171,0.0183,0.0193,0.018,0.0186,0.0171,0.0146,0.0137,0.0114,0.0093,0.0079,0.0063,0.006,0.0044,0.0021,0.0016,0.0012,0.0056,0.0056,0.0055,0.0006,0,0.0097,0.0136,0.0144,0.0184,0.0205,0.0207,0.0232,0.024,0.0235,0.0238,0.0208,0.0204,0.0174,0.0167,0.0142,0.0094,0.0071,0.0094,0.0003,0.0,-0.0005,0.0009,0.0054,0.0004,0.0003,0.0002,0.0002,0,0.0124,0.0148,0.0189,0.0227,0.0237,0.0259,0.0288,0.0307,0.0308,0.03,0.0283,0.0257,0.0234,0.02,0.0128,0.0142,0.0088,0.0046,0.0043,0.0017,-0.001,-0.0022,-0.0004,-0.0004,-0.0003,-0.0003,-0.0003,0,0.0136,0.018,0.0214,0.0228,0.0268,0.0288,0.0309,0.0323,0.0343,0.0336,0.0339,0.0299,0.0283,0.0211,0.0133,0.0127,0.0046,0.0024,-0.0031,-0.0032,-0.0038,-0.0039,-0.0032,-0.0032,-0.0032,-0.0032,-0.0032,0,0.0161,0.0189,0.0223,0.0244,0.0288,0.0308,0.0348,0.0361,0.0381,0.0401,0.0369,0.0369,0.0283,0.023,0.0147,0.0054,0.0055,-0.0023,-0.0045,-0.0013,-0.0011,-0.004,-0.004,-0.0034,-0.0034,-0.0033,-0.0033,0,0.017,0.0192,0.0234,0.0278,0.0296,0.0327,0.0381,0.0408,0.0422,0.0446,0.0448,0.0422,0.0355,0.0266,0.0153,0.008,-0.0014,-0.005,0.0002,-0.0017,-0.0079,-0.0076,-0.0116,-0.0117,-0.0117,-0.0118,-0.0118,0,0.018,0.0202,0.0254,0.0281,0.0303,0.0351,0.0387,0.0422,0.045,0.0476,0.0487,0.0448,0.0412,0.0261,0.0159,0.0008,-0.002,-0.0074,-0.0086,-0.007,-0.0087,-0.0083,-0.008,-0.0119,-0.0119,-0.0119,-0.0119,0,0.0197,0.0212,0.0244,0.0296,0.0337,0.0385,0.0436,0.0463,0.0501,0.0516,0.0518,0.0453,0.0381,0.0267,0.0155,0.0042,-0.0041,-0.0079,-0.008,-0.0091,-0.0074,-0.0089,-0.0085,-0.0121,-0.012,-0.012,-0.012,0,0.0206,0.0226,0.0263,0.0308,0.0358,0.0404,0.0434,0.0472,0.0506,0.0535,0.0534,0.0465,0.0431,0.0284,0.0179,0.0074,0.0037,-0.0016,-0.002,-0.0019,0.002,0.0057,0.0036,0,0,0,0,0,0.0218,0.0236,0.0275,0.032,0.0367,0.0396,0.0461,0.0488,0.0526,0.0529,0.0536,0.047,0.0335,0.0286,0.0179,0.0153,0.0008,0.0021,-0.0058,-0.013,-0.0128,-0.0099,0,0,0,0,0,0,0.0224,0.0257,0.027,0.0319,0.0347,0.0401,0.0442,0.0471,0.0479,0.0504,0.0442,0.042,0.0296,0.0391,0.0169,0.014,0.0069,-0.0034,-0.0037,-0.0131,-0.0129,-0.0128,-0.0097,0,0,0,0,0]}]]